Location: Beadle
(51.4667°N, 109.0000°W)
Time: 04:30:07
(UTC+00:00)

Altair - Pass Details

Date: 05 June 2022
Orbit: 1501 x 1682 km, 47.2° (Epoch: 30 June)

Event Time Altitude Azimuth Distance (km) Brightness Sun altitude
Rises 01:03:50 0° 275° (W) 4,859 11.7 19.0°
Reaches altitude 10° 01:06:57 10° 273° (W) 3,892 11.7 18.6°
Maximum altitude 01:16:48 64° 195° (SSW) 1,821 8.2 17.1°
Drops below altitude 10° 01:26:47 10° 117° (ESE) 3,942 9.1 15.6°
Sets 01:29:58 0° 115° (ESE) 4,924 9.5 15.1°
